TimeCDT,TemperatureF,Dew PointF,Humidity,Sea Level PressureIn,VisibilityMPH,Wind Direction,Wind SpeedMPH,Gust SpeedMPH,PrecipitationIn,Events,Conditions,WindDirDegrees,DateUTC
12:14 AM,21.2,17.6,86,30.11,10.0,North,16.1,-,N/A,,Clear,360,2013-03-15 05:14:00
12:34 AM,21.2,17.6,86,30.10,10.0,North,11.5,-,N/A,,Clear,10,2013-03-15 05:34:00
12:54 AM,21.2,17.6,86,30.10,10.0,North,11.5,-,N/A,,Clear,10,2013-03-15 05:54:00
1:15 AM,21.2,15.8,80,30.10,10.0,North,12.7,-,N/A,,Clear,10,2013-03-15 06:15:00
1:34 AM,21.2,17.6,86,30.10,10.0,North,11.5,-,N/A,,Scattered Clouds,360,2013-03-15 06:34:00
1:54 AM,21.2,17.6,86,30.10,10.0,North,10.4,-,N/A,,Clear,10,2013-03-15 06:54:00
2:15 AM,21.2,15.8,80,30.11,10.0,North,13.8,-,N/A,,Clear,10,2013-03-15 07:15:00
2:34 AM,21.2,15.8,80,30.12,10.0,North,12.7,-,N/A,,Clear,360,2013-03-15 07:34:00
2:54 AM,21.2,15.8,80,30.12,10.0,North,13.8,-,N/A,,Clear,10,2013-03-15 07:54:00
3:15 AM,19.4,15.8,86,30.11,10.0,North,11.5,-,N/A,,Clear,10,2013-03-15 08:15:00
3:34 AM,19.4,15.8,86,30.11,10.0,North,12.7,-,N/A,,Clear,360,2013-03-15 08:34:00
3:54 AM,19.4,15.8,86,30.11,10.0,North,12.7,-,N/A,,Clear,10,2013-03-15 08:54:00
4:15 AM,19.4,15.8,86,30.10,10.0,NNE,12.7,-,N/A,,Clear,20,2013-03-15 09:15:00
4:34 AM,19.4,15.8,86,30.10,10.0,NNE,13.8,19.6,N/A,,Clear,20,2013-03-15 09:34:00
4:55 AM,19.4,15.8,86,30.09,10.0,NNE,15.0,-,N/A,,Clear,20,2013-03-15 09:55:00
5:15 AM,19.4,15.8,86,30.08,10.0,NNE,12.7,-,N/A,,Clear,30,2013-03-15 10:15:00
5:34 AM,19.4,14.0,80,30.08,10.0,NNE,12.7,-,N/A,,Clear,30,2013-03-15 10:34:00
5:55 AM,19.4,15.8,86,30.08,10.0,NNE,11.5,-,N/A,,Clear,30,2013-03-15 10:55:00
6:15 AM,17.6,15.8,93,30.09,10.0,NNE,9.2,-,N/A,,Clear,20,2013-03-15 11:15:00
6:34 AM,19.4,14.0,80,30.09,10.0,NNE,10.4,17.3,N/A,,Scattered Clouds,30,2013-03-15 11:34:00
6:55 AM,19.4,14.0,80,30.10,10.0,NNE,11.5,-,N/A,,Clear,20,2013-03-15 11:55:00
7:15 AM,17.6,12.2,79,30.11,7.0,NNE,11.5,-,N/A,Snow,Light Snow,20,2013-03-15 12:15:00
7:34 AM,17.6,14.0,86,30.11,4.0,NNE,11.5,-,N/A,Snow,Light Snow,20,2013-03-15 12:34:00
7:55 AM,17.6,14.0,86,30.10,2.5,NNE,8.1,-,N/A,Snow,Light Snow,30,2013-03-15 12:55:00
8:14 AM,17.6,12.2,79,30.09,3.0,NE,8.1,-,N/A,Snow,Light Snow,40,2013-03-15 13:14:00
8:34 AM,17.6,12.2,79,30.08,4.0,NE,9.2,-,N/A,Snow,Light Snow,50,2013-03-15 13:34:00
8:55 AM,17.6,12.2,79,30.08,10.0,NE,8.1,-,N/A,,Mostly Cloudy,40,2013-03-15 13:55:00
9:14 AM,17.6,12.2,79,30.09,10.0,NE,10.4,-,N/A,,Mostly Cloudy,40,2013-03-15 14:14:00
9:34 AM,17.6,12.2,79,30.10,10.0,NNE,9.2,-,N/A,,Mostly Cloudy,30,2013-03-15 14:34:00
9:55 AM,17.6,12.2,79,30.10,7.0,NNE,8.1,-,N/A,Snow,Light Snow,30,2013-03-15 14:55:00
10:14 AM,17.6,12.2,79,30.11,10.0,NNE,9.2,-,N/A,,Overcast,20,2013-03-15 15:14:00
10:34 AM,17.6,12.2,79,30.09,10.0,NE,10.4,-,N/A,,Mostly Cloudy,40,2013-03-15 15:34:00
10:55 AM,17.6,12.2,79,30.08,5.0,NE,11.5,-,N/A,,Haze,50,2013-03-15 15:55:00
11:14 AM,17.6,12.2,79,30.09,10.0,NE,10.4,-,N/A,,Clear,50,2013-03-15 16:14:00
11:34 AM,17.6,10.4,73,30.08,10.0,NE,12.7,-,N/A,,Clear,50,2013-03-15 16:34:00
11:55 AM,17.6,12.2,79,30.08,10.0,NE,9.2,-,N/A,,Clear,50,2013-03-15 16:55:00
12:14 PM,17.6,12.2,79,30.07,10.0,NE,9.2,-,N/A,,Clear,50,2013-03-15 17:14:00
12:34 PM,17.6,10.4,73,30.06,10.0,ENE,12.7,-,N/A,,Clear,60,2013-03-15 17:34:00
12:55 PM,17.6,10.4,73,30.05,10.0,ENE,12.7,-,N/A,,Clear,60,2013-03-15 17:55:00
1:14 PM,19.4,10.4,68,30.05,10.0,ENE,13.8,-,N/A,,Clear,60,2013-03-15 18:14:00
1:34 PM,19.4,10.4,68,30.03,10.0,ENE,13.8,-,N/A,,Clear,60,2013-03-15 18:34:00
1:55 PM,19.4,10.4,68,30.03,10.0,NE,11.5,-,N/A,,Clear,50,2013-03-15 18:55:00
2:14 PM,17.6,12.2,79,30.03,10.0,NE,11.5,-,N/A,,Clear,50,2013-03-15 19:14:00
2:35 PM,17.6,12.2,79,30.02,3.0,NE,12.7,-,N/A,Snow,Light Snow,50,2013-03-15 19:35:00
2:54 PM,17.6,14.0,86,30.04,1.0,NNE,9.2,-,N/A,Snow,Light Snow,30,2013-03-15 19:54:00
3:14 PM,17.6,14.0,86,30.04,0.5,NNE,11.5,-,N/A,Snow,Snow,30,2013-03-15 20:14:00
3:35 PM,17.6,15.8,93,30.04,0.2,NNE,12.7,17.3,N/A,Snow,Snow,20,2013-03-15 20:35:00
3:54 PM,15.8,14.0,93,30.04,0.2,NNE,16.1,-,N/A,Snow,Snow,30,2013-03-15 20:54:00
4:15 PM,15.8,12.2,86,30.03,0.5,NNE,16.1,19.6,N/A,Snow,Light Snow,30,2013-03-15 21:15:00
4:35 PM,15.8,12.2,86,30.03,0.8,NNE,16.1,-,N/A,Snow,Light Snow,30,2013-03-15 21:35:00
4:54 PM,15.8,12.2,86,30.02,1.2,NNE,15.0,20.7,N/A,Snow,Light Snow,30,2013-03-15 21:54:00
5:15 PM,15.8,12.2,86,30.02,2.0,NE,15.0,-,N/A,Snow,Light Snow,40,2013-03-15 22:15:00
5:34 PM,15.8,12.2,86,30.03,2.0,NNE,13.8,20.7,N/A,Snow,Light Snow,30,2013-03-15 22:34:00
5:54 PM,15.8,10.4,79,30.03,3.0,NE,16.1,-,N/A,Snow,Light Snow,40,2013-03-15 22:54:00
6:15 PM,14.0,10.4,86,30.03,2.0,NE,11.5,-,N/A,Snow,Light Snow,40,2013-03-15 23:15:00
6:34 PM,14.0,10.4,86,30.03,1.0,NE,15.0,-,N/A,Snow,Light Snow,40,2013-03-15 23:34:00
6:54 PM,12.2,10.4,92,30.04,0.5,NNE,11.5,18.4,N/A,Snow,Snow,30,2013-03-15 23:54:00
7:14 PM,12.2,10.4,92,30.05,0.5,NNE,11.5,-,N/A,Snow,Light Snow,30,2013-03-16 00:14:00
7:34 PM,12.2,8.6,85,30.06,1.0,NNE,12.7,-,N/A,Snow,Light Snow,30,2013-03-16 00:34:00
7:55 PM,12.2,8.6,85,30.06,2.0,NE,12.7,19.6,N/A,Snow,Light Snow,40,2013-03-16 00:55:00
8:14 PM,12.2,8.6,85,30.08,1.2,NNE,11.5,-,N/A,Snow,Light Snow,30,2013-03-16 01:14:00
8:34 PM,12.2,8.6,85,30.09,1.5,NNE,15.0,-,N/A,Snow,Light Snow,30,2013-03-16 01:34:00
8:55 PM,12.2,8.6,85,30.10,1.5,NNE,12.7,-,N/A,Snow,Light Snow,30,2013-03-16 01:55:00
9:14 PM,10.4,8.6,92,30.10,2.5,NE,11.5,-,N/A,Snow,Light Snow,40,2013-03-16 02:14:00
9:34 PM,10.4,8.6,92,30.11,2.0,NNE,11.5,-,N/A,Snow,Light Snow,30,2013-03-16 02:34:00
9:55 PM,10.4,6.8,85,30.12,2.0,NNE,11.5,-,N/A,Snow,Light Snow,30,2013-03-16 02:55:00
10:14 PM,10.4,6.8,85,30.13,7.0,NNE,10.4,-,N/A,Snow,Light Snow,30,2013-03-16 03:14:00
10:34 PM,8.6,5.0,85,30.13,10.0,NNE,9.2,-,N/A,Snow,Light Snow,20,2013-03-16 03:34:00
10:55 PM,8.6,3.2,79,30.14,10.0,NNE,9.2,-,N/A,,Clear,20,2013-03-16 03:55:00
11:14 PM,6.8,1.4,79,30.14,10.0,NNE,8.1,-,N/A,,Clear,20,2013-03-16 04:14:00
11:35 PM,1.4,-2.2,85,30.15,10.0,North,8.1,-,N/A,Snow,Light Snow,10,2013-03-16 04:35:00
11:55 PM,1.4,-0.4,92,30.14,10.0,North,9.2,-,N/A,,Clear,10,2013-03-16 04:55:00